When you browse on this site, cookies collect data to enhance your experience and personalize the content and advertising you see.
Visit our Privacy Policy to learn more. By continuing to use the site, you agree to this use of cookies and data.

Hourly Weather Belcesti

Today, 4 August, Tuesday

Time Temperature Precipitation Wind Pressure Humidity
00:00 +19°C° 0 mm 4 mps 751 mmHg 61%
01:00 +19°C° 0 mm 4 mps 751 mmHg 63%
02:00 +18°C° 0 mm 4 mps 751 mmHg 67%
03:00 +17°C° 0 mm 3 mps 751 mmHg 71%
04:00 +17°C° 0 mm 3 mps 751 mmHg 74%
05:00 +16°C° 0 mm 3 mps 751 mmHg 78%
06:00 +18°C° 0 mm 4 mps 751 mmHg 72%
07:00 +20°C° 0 mm 5 mps 751 mmHg 66%
08:00 +22°C° 0 mm 5 mps 751 mmHg 60%
09:00 +24°C° 0 mm 6 mps 751 mmHg 55%
10:00 +27°C° 0 mm 6 mps 751 mmHg 50%
11:00 +28°C° 0 mm 7 mps 751 mmHg 46%
12:00 +29°C° 0 mm 7 mps 751 mmHg 44%
13:00 +30°C° 0 mm 7 mps 750 mmHg 42%
14:00 +30°C° 0 mm 6 mps 750 mmHg 40%
15:00 +30°C° 0 mm 6 mps 750 mmHg 40%
16:00 +30°C° 0 mm 5 mps 750 mmHg 39%
17:00 +30°C° 0 mm 5 mps 750 mmHg 38%
18:00 +28°C° 0 mm 4 mps 750 mmHg 41%
19:00 +26°C° 0 mm 4 mps 750 mmHg 45%
20:00 +24°C° 0 mm 3 mps 750 mmHg 48%
21:00 +22°C° 0 mm 3 mps 750 mmHg 50%
22:00 +21°C° 0 mm 3 mps 751 mmHg 52%
23:00 +21°C° 0 mm 3 mps 751 mmHg 54%

Tomorrow, 5 August, Wednesday

Time Temperature Precipitation Wind Pressure Humidity
00:00 +20°C° 0 mm 3 mps 751 mmHg 59%
01:00 +19°C° 0 mm 3 mps 751 mmHg 64%
02:00 +19°C° 0 mm 3 mps 751 mmHg 69%
03:00 +18°C° 0 mm 2 mps 751 mmHg 73%
04:00 +17°C° 0 mm 2 mps 751 mmHg 77%
05:00 +16°C° 0 mm 1 mps 752 mmHg 81%
06:00 +19°C° 0 mm 1 mps 752 mmHg 74%
07:00 +20°C° 0 mm 2 mps 752 mmHg 67%
08:00 +23°C° 0 mm 2 mps 753 mmHg 60%
09:00 +25°C° 0 mm 2 mps 753 mmHg 54%
10:00 +27°C° 0 mm 2 mps 753 mmHg 47%
11:00 +29°C° 0 mm 3 mps 753 mmHg 41%
12:00 +30°C° 0 mm 3 mps 753 mmHg 38%
13:00 +30°C° 0 mm 2 mps 753 mmHg 36%
14:00 +31°C° 0 mm 2 mps 753 mmHg 33%
15:00 +31°C° 0 mm 2 mps 753 mmHg 34%
16:00 +31°C° 0 mm 2 mps 753 mmHg 35%
17:00 +31°C° 0 mm 2 mps 753 mmHg 35%
18:00 +29°C° 0 mm 2 mps 753 mmHg 39%
19:00 +27°C° 0 mm 2 mps 753 mmHg 43%
20:00 +25°C° 0 mm 2 mps 753 mmHg 46%
21:00 +24°C° 0 mm 2 mps 754 mmHg 49%
22:00 +23°C° 0 mm 1 mps 754 mmHg 51%
23:00 +22°C° 0 mm 1 mps 755 mmHg 53%

Day after tomorrow, 6 August, Thursday

Time Temperature Precipitation Wind Pressure Humidity
00:00 +21°C° 0 mm 1 mps 755 mmHg 57%
01:00 +20°C° 0 mm 1 mps 755 mmHg 60%
02:00 +19°C° 0 mm 2 mps 755 mmHg 64%
03:00 +18°C° 0 mm 2 mps 755 mmHg 68%
04:00 +18°C° 0 mm 2 mps 755 mmHg 73%
05:00 +17°C° 0 mm 2 mps 755 mmHg 77%
06:00 +19°C° 0 mm 2 mps 755 mmHg 71%
07:00 +21°C° 0 mm 2 mps 756 mmHg 65%
08:00 +24°C° 0 mm 2 mps 756 mmHg 60%
09:00 +26°C° 0 mm 2 mps 756 mmHg 53%
10:00 +28°C° 0 mm 2 mps 756 mmHg 47%
11:00 +30°C° 0 mm 2 mps 756 mmHg 40%
12:00 +31°C° 0 mm 2 mps 756 mmHg 37%
13:00 +33°C° 0 mm 3 mps 756 mmHg 34%
14:00 +34°C° 0 mm 3 mps 756 mmHg 32%
15:00 +34°C° 0 mm 3 mps 756 mmHg 33%
16:00 +34°C° 0 mm 4 mps 756 mmHg 33%
17:00 +33°C° 0 mm 4 mps 755 mmHg 34%
18:00 +30°C° 0 mm 4 mps 756 mmHg 40%
19:00 +28°C° 0 mm 3 mps 756 mmHg 46%
20:00 +26°C° 0 mm 3 mps 756 mmHg 51%
21:00 +25°C° 0 mm 2 mps 756 mmHg 54%
22:00 +24°C° 0 mm 2 mps 756 mmHg 58%
23:00 +23°C° 0 mm 2 mps 757 mmHg 61%

7 August, Friday

Time Temperature Precipitation Wind Pressure Humidity
00:00 +21°C° 0 mm 2 mps 757 mmHg 63%
01:00 +20°C° 0 mm 2 mps 757 mmHg 66%
02:00 +20°C° 0 mm 2 mps 757 mmHg 69%
03:00 +19°C° 0 mm 2 mps 757 mmHg 71%
04:00 +19°C° 0 mm 2 mps 757 mmHg 73%
05:00 +19°C° 0 mm 3 mps 757 mmHg 76%
06:00 +20°C° 0 mm 3 mps 757 mmHg 71%
07:00 +22°C° 0 mm 4 mps 757 mmHg 66%
08:00 +25°C° 0 mm 4 mps 757 mmHg 62%
09:00 +27°C° 0 mm 4 mps 757 mmHg 56%
10:00 +29°C° 0 mm 4 mps 757 mmHg 51%
11:00 +30°C° 0 mm 4 mps 757 mmHg 45%
12:00 +32°C° 0 mm 4 mps 757 mmHg 42%
13:00 +33°C° 0 mm 4 mps 756 mmHg 39%
14:00 +34°C° 0 mm 4 mps 756 mmHg 36%
15:00 +34°C° 0 mm 4 mps 756 mmHg 36%
16:00 +33°C° 0 mm 5 mps 756 mmHg 37%
17:00 +33°C° 0 mm 5 mps 756 mmHg 38%
18:00 +30°C° 0 mm 4 mps 756 mmHg 43%
19:00 +28°C° 0 mm 4 mps 756 mmHg 48%
20:00 +26°C° 0 mm 3 mps 756 mmHg 54%
21:00 +25°C° 0 mm 3 mps 756 mmHg 58%
22:00 +24°C° 0 mm 3 mps 756 mmHg 62%
23:00 +22°C° 0 mm 3 mps 756 mmHg 66%

8 August, Saturday

Time Temperature Precipitation Wind Pressure Humidity
00:00 +21°C° 0 mm 3 mps 756 mmHg 71%
01:00 +21°C° 0 mm 3 mps 756 mmHg 76%
02:00 +20°C° 0 mm 3 mps 756 mmHg 80%
03:00 +20°C° 0 mm 3 mps 756 mmHg 84%
04:00 +20°C° 0 mm 3 mps 755 mmHg 89%
05:00 +19°C° 0 mm 3 mps 755 mmHg 93%
06:00 +21°C° 0 mm 3 mps 755 mmHg 87%
07:00 +22°C° 0 mm 3 mps 755 mmHg 82%
08:00 +25°C° 0 mm 4 mps 755 mmHg 76%
09:00 +26°C° 0.2 mm 4 mps 755 mmHg 70%
10:00 +27°C° 0.2 mm 5 mps 755 mmHg 63%
11:00 +29°C° 0.2 mm 5 mps 755 mmHg 56%
12:00 +30°C° 0.1 mm 5 mps 755 mmHg 50%
13:00 +32°C° 0.1 mm 5 mps 754 mmHg 43%
14:00 +32°C° 0.1 mm 5 mps 754 mmHg 37%
15:00 +32°C° 0 mm 5 mps 754 mmHg 38%
16:00 +32°C° 0 mm 5 mps 753 mmHg 39%
17:00 +30°C° 0 mm 5 mps 753 mmHg 40%
18:00 +28°C° 0 mm 4 mps 753 mmHg 45%
19:00 +26°C° 0 mm 4 mps 753 mmHg 51%
20:00 +24°C° 0 mm 3 mps 754 mmHg 57%
21:00 +22°C° 0 mm 3 mps 754 mmHg 61%
22:00 +21°C° 0 mm 3 mps 754 mmHg 65%
23:00 +20°C° 0 mm 2 mps 753 mmHg 69%

9 August, Sunday

Time Temperature Precipitation Wind Pressure Humidity
00:00 +20°C° 0 mm 2 mps 753 mmHg 72%
01:00 +19°C° 0 mm 2 mps 753 mmHg 76%
02:00 +18°C° 0 mm 2 mps 753 mmHg 79%
03:00 +18°C° 0 mm 2 mps 753 mmHg 81%
04:00 +18°C° 0 mm 2 mps 753 mmHg 83%
05:00 +17°C° 0 mm 2 mps 752 mmHg 86%
06:00 +19°C° 0 mm 3 mps 752 mmHg 78%
07:00 +21°C° 0 mm 3 mps 752 mmHg 71%
08:00 +22°C° 0 mm 3 mps 752 mmHg 64%
09:00 +25°C° 0 mm 3 mps 752 mmHg 57%
10:00 +26°C° 0 mm 3 mps 752 mmHg 50%
11:00 +28°C° 0 mm 4 mps 752 mmHg 43%
12:00 +29°C° 0 mm 4 mps 752 mmHg 41%
13:00 +29°C° 0 mm 4 mps 751 mmHg 38%
14:00 +30°C° 0 mm 4 mps 751 mmHg 36%
15:00 +30°C° 0 mm 4 mps 751 mmHg 36%
16:00 +30°C° 0 mm 4 mps 750 mmHg 37%
17:00 +30°C° 0 mm 3 mps 750 mmHg 38%
18:00 +28°C° 0 mm 3 mps 750 mmHg 44%
19:00 +26°C° 0 mm 2 mps 751 mmHg 49%
20:00 +24°C° 0 mm 2 mps 751 mmHg 55%
21:00 +23°C° 0 mm 2 mps 751 mmHg 59%
22:00 +22°C° 0 mm 1 mps 751 mmHg 62%
23:00 +21°C° 0 mm 1 mps 751 mmHg 66%
Show more